Location: Complexul Astronomic Baia Mare
(47.6577°N, 23.5639°E)
Time: 18:33:35
(UTC+03:00)

ISS - Pass Details

Date: 27 May 2017
Orbit: 402 x 408 km, 51.6° (Epoch: 22 May)

Event Time Altitude Azimuth Distance (km) Brightness Sun altitude
Rises 00:22:02 0° 276° (W) 2,331 0.3 -19.7°
Reaches altitude 10° 00:24:12 10° 285° (WNW) 1,470 -0.6 -19.8°
Maximum altitude 00:27:20 40° 356° (N) 621 -2.4 -19.9°
Drops below altitude 10° 00:30:27 10° 68° (ENE) 1,467 -0.9 -20.1°
Sets 00:32:37 0° 76° (ENE) 2,327 0.0 -20.1°
